Weather in Azovy

Russia / Yamalo-Nenets Autonomous Okrug     64°53′34″N   65°03′49″E
temp.,
°C
wind,
m/s
gust,
m/s
humid.,
%
clouds,
%
prec.,
mm/h
press.,
hPa
HPBL,
m
27 february, sat
sat2723:00−21ssw3493100 0.0 102223
02:00−22s339479 0.0 102220
05:00−22s349476 0.0 102327
08:00−23s349569 0.0 102229
11:00−21s349472 0.0 102396
14:00−19sse359577 0.0 1023186
17:00−21sse459778 0.0 102247
20:00−23s459624 0.0 102238
28 february, sun
sun2823:00−25s459412 0.0 102230
02:00−26s44950 0.0 102127
05:00−27s45961 0.0 102238
08:00−28s45940 0.0 102150
11:00−26s46945 0.0 1021154
14:00−23sse469325 0.0 1021244
17:00−25sse559546 0.0 102168
20:00−26s459159 0.0 102048
1 march, mon
mon123:00−26s458761 0.0 102037
02:00−27ssw449076 0.0 102030
05:00−27s449671 0.0 101930
08:00−27s449781 0.0 101840
11:00−24s579682 0.0 1017228
14:00−20s689592 0.0 1015363
17:00−20sse6109596 0.0 1014166
20:00−22s699573 0.0 1011114
2 march, tue
tue223:00−21s7129674 0.0 1009185
02:00−19s81294100 0.0 1007225
05:00−19s81392100 0.0 1005300
08:00−19s91491100 0.0 1004350
11:00−18s91290100 0.0 1004421
14:00−16s81289100 0.0 1003477
17:00−15s81289100 0.0 1003477
20:00−14s81393100 0.3 1002500
3 march, wed
wed323:00−13s81294100 0.9 1002502
02:00−14s81194100 0.7 1001430
05:00−15s71195100 1.4 1001392
08:00−15sse71195100 0.8 1001372
11:00−14s71094100 1.3 1001426
14:00−13s6993100 0.4 1001465
17:00−13s6993100 0.8 1001405
20:00−14s61094100 0.2 1001319